sat.trackr.live / text

‹ back to catalog

STARLINK-32775

NORAD 62742 · 2025-014H

PAYLOAD ACTIVE UNKNOWN

§ Identity

Operator
Country
US
Launch date
2025-01-21
Launch site
AFETR
Launch vehicle
Mass (kg)
RCS (m²)

Purposes: comms

External: N2YO · Heavens-Above · Gunter

§ Orbital elements

Epoch: 2026-05-24T04:22:22.122336Z

Period
94.27 min
Inclination
43.0015°
Eccentricity
0.0001528
Mean motion
15.27586404 rev/d
Perigee alt
482.0 km
Apogee alt
484.1 km
Semi-major
6,861.2 km
B*
3.7661e-4
RAAN
87.9882°
Arg perigee
267.1924°
Mean anomaly
92.8753°
Rev number
7,480

§ Raw data

STARLINK-327751 62742U 25014H   26144.18220049  .00010118  00000+0  37661-3 0  99922 62742  43.0015  87.9882 0001528 267.1924  92.8753 15.27586404 74800

JSON: /api/v1/satellites/62742 · /tle

For live sub-satellite position, see the globe view (requires WebGL).

§ Visibility from observer

Set your observer location to see the next 7 days of passes ≥ 10°. The values pass through the URL so the page stays shareable.

No JS? Fill the form by hand. The geolocation button needs JavaScript.